Location: Sternwarte Stuttgart
(48.7824°N, 9.1965°E)
Time: 12:44:39
(UTC+00:00)

ISS - Visible Passes

Search period start: 18 December 2017 00:00
Search period end: 28 December 2017 00:00
Orbit: 402 x 406 km, 51.6° (Epoch: 18 December)

Date Brightness Start Highest point End Pass type
(mag) Time Alt. Az. Time Alt. Az. Time Alt. Az.
25 Dec -0.7 06:37:05 10° S 06:39:23 18° SE 06:41:42 10° E visible
26 Dec -0.2 05:46:30 10° SSE 05:47:17 11° SE 05:48:05 10° ESE visible
27 Dec -1.9 06:27:54 10° SSW 06:30:54 33° SE 06:33:54 10° E visible
